Time,TemperatureF,DewpointF,PressureIn,WindDirection,WindDirectionDegrees,WindSpeedMPH,WindSpeedGustMPH,Humidity,HourlyPrecipIn,Conditions,Clouds,dailyrainin,SolarRadiationWatts/m^2,SoftwareType,DateUTC
2013-03-22 00:00:00,28.8,10.1,29.64,NW,322,4.6,4.6,45,0.00,CLR,,0.00,0.0,WeatherDisplay:10.37,2013-03-22 04:00:00,
2013-03-22 00:05:00,28.8,10.6,29.64,WSW,244,6.9,6.9,46,0.00,CLR,,0.00,0.0,WeatherDisplay:10.37,2013-03-22 04:05:00,
2013-03-22 00:06:00,28.8,10.6,29.64,SSW,206,3.5,3.5,46,0.00,CLR,,0.00,0.0,WeatherDisplay:10.37,2013-03-22 04:06:00,
2013-03-22 00:11:00,28.7,10.5,29.64,SW,227,3.5,3.5,46,0.00,CLR,,0.00,0.0,WeatherDisplay:10.37,2013-03-22 04:11:00,
2013-03-22 00:13:00,28.8,10.6,29.64,West,270,3.5,0.0,46,0.00,CLR,,0.00,0.0,WeatherDisplay:10.37,2013-03-22 04:13:00,
2013-03-22 00:18:00,28.8,10.6,29.64,WSW,244,4.6,4.6,46,0.00,CLR,,0.00,0.0,WeatherDisplay:10.37,2013-03-22 04:18:00,
2013-03-22 00:21:00,28.7,10.5,29.64,WNW,298,1.1,1.1,46,0.00,CLR,,0.00,0.0,WeatherDisplay:10.37,2013-03-22 04:21:00,
2013-03-22 00:26:00,28.7,10.5,29.64,North,3,1.1,1.1,46,0.00,CLR,,0.00,0.0,WeatherDisplay:10.37,2013-03-22 04:26:00,
2013-03-22 00:31:00,28.7,10.5,29.64,WNW,299,3.5,3.5,46,0.00,CLR,,0.00,0.0,WeatherDisplay:10.37,2013-03-22 04:31:00,
2013-03-22 00:37:00,28.7,10.5,29.64,WNW,282,3.5,3.5,46,0.00,CLR,,0.00,0.0,WeatherDisplay:10.37,2013-03-22 04:37:00,
2013-03-22 00:42:00,28.7,11.0,29.64,WNW,288,0.0,0.0,47,0.00,CLR,,0.00,0.0,WeatherDisplay:10.37,2013-03-22 04:42:00,
2013-03-22 00:47:00,28.7,11.0,29.64,WNW,285,1.1,1.1,47,0.00,CLR,,0.00,0.0,WeatherDisplay:10.37,2013-03-22 04:47:00,
2013-03-22 00:52:00,28.7,11.0,29.64,WNW,294,2.3,2.3,47,0.00,CLR,,0.00,0.0,WeatherDisplay:10.37,2013-03-22 04:52:00,
2013-03-22 00:57:00,28.7,11.5,29.64,WNW,289,1.1,1.1,48,0.00,CLR,,0.00,0.0,WeatherDisplay:10.37,2013-03-22 04:57:00,
2013-03-22 01:02:00,28.5,11.3,29.64,WSW,248,3.5,3.5,48,0.00,CLR,,0.00,0.0,WeatherDisplay:10.37,2013-03-22 05:02:00,
2013-03-22 01:07:00,28.5,11.3,29.64,WNW,284,3.5,3.5,48,0.00,CLR,,0.00,0.0,WeatherDisplay:10.37,2013-03-22 05:07:00,
2013-03-22 01:12:00,28.5,11.3,29.64,West,281,5.8,5.8,48,0.00,CLR,,0.00,0.0,WeatherDisplay:10.37,2013-03-22 05:12:00,
2013-03-22 01:17:00,28.4,11.6,29.64,West,275,0.0,0.0,49,0.00,CLR,,0.00,0.0,WeatherDisplay:10.37,2013-03-22 05:17:00,
2013-03-22 01:22:00,28.4,11.6,29.64,WSW,244,2.3,2.3,49,0.00,CLR,,0.00,0.0,WeatherDisplay:10.37,2013-03-22 05:22:00,
2013-03-22 01:27:00,28.4,11.6,29.64,NNW,336,5.8,5.8,49,0.00,CLR,,0.00,0.0,WeatherDisplay:10.37,2013-03-22 05:27:00,
2013-03-22 01:32:00,28.4,12.1,29.64,NW,313,3.5,3.5,50,0.00,CLR,,0.00,0.0,WeatherDisplay:10.37,2013-03-22 05:32:00,
2013-03-22 01:37:00,28.4,12.6,29.64,WSW,250,5.8,5.8,51,0.00,CLR,,0.00,0.0,WeatherDisplay:10.37,2013-03-22 05:37:00,
2013-03-22 01:42:00,28.2,12.4,29.64,WNW,292,6.9,6.9,51,0.00,CLR,,0.00,0.0,WeatherDisplay:10.37,2013-03-22 05:42:00,
2013-03-22 01:47:00,28.2,12.4,29.64,NNW,329,0.0,0.0,51,0.00,CLR,,0.00,0.0,WeatherDisplay:10.37,2013-03-22 05:47:00,
2013-03-22 01:52:00,28.2,12.4,29.64,South,182,4.6,4.6,51,0.00,CLR,,0.00,0.0,WeatherDisplay:10.37,2013-03-22 05:52:00,
2013-03-22 01:57:00,28.2,12.8,29.64,WSW,248,1.1,1.1,52,0.00,CLR,,0.00,0.0,WeatherDisplay:10.37,2013-03-22 05:57:00,
2013-03-22 02:02:00,28.1,12.7,29.64,SSE,160,3.5,3.5,52,0.00,CLR,,0.00,0.0,WeatherDisplay:10.37,2013-03-22 06:02:00,
2013-03-22 02:07:00,28.2,12.8,29.64,NW,304,4.6,4.6,52,0.00,CLR,,0.00,0.0,WeatherDisplay:10.37,2013-03-22 06:07:00,
2013-03-22 02:12:00,28.2,13.2,29.64,WNW,299,2.3,2.3,53,0.00,CLR,,0.00,0.0,WeatherDisplay:10.37,2013-03-22 06:12:00,
2013-03-22 02:17:00,28.2,13.2,29.64,West,277,2.3,2.3,53,0.00,FEW,,0.00,0.0,WeatherDisplay:10.37,2013-03-22 06:17:00,
2013-03-22 02:22:00,28.2,13.2,29.64,West,274,0.0,0.0,53,0.00,FEW,,0.00,0.0,WeatherDisplay:10.37,2013-03-22 06:22:00,
2013-03-22 02:27:00,28.2,13.2,29.64,WNW,292,0.0,0.0,53,0.00,FEW,,0.00,0.0,WeatherDisplay:10.37,2013-03-22 06:27:00,
2013-03-22 02:32:00,28.2,13.2,29.64,WNW,299,3.5,3.5,53,0.00,FEW,,0.00,0.0,WeatherDisplay:10.37,2013-03-22 06:32:00,
2013-03-22 02:37:00,28.2,13.2,29.64,WSW,243,8.1,8.1,53,0.00,FEW,,0.00,0.0,WeatherDisplay:10.37,2013-03-22 06:37:00,
2013-03-22 02:42:00,28.4,13.4,29.64,West,270,2.3,2.3,53,0.00,FEW,,0.00,0.0,WeatherDisplay:10.37,2013-03-22 06:42:00,
2013-03-22 02:47:00,28.4,13.4,29.63,North,3,3.5,3.5,53,0.00,FEW,,0.00,0.0,WeatherDisplay:10.37,2013-03-22 06:47:00,
2013-03-22 02:52:00,28.4,13.9,29.63,WNW,294,2.3,2.3,54,0.00,FEW,,0.00,0.0,WeatherDisplay:10.37,2013-03-22 06:52:00,
2013-03-22 02:57:00,28.4,13.9,29.63,WNW,298,5.8,5.8,54,0.00,FEW,,0.00,0.0,WeatherDisplay:10.37,2013-03-22 06:57:00,
2013-03-22 03:03:00,28.4,13.9,29.63,SSW,205,4.6,4.6,54,0.00,FEW,,0.00,0.0,WeatherDisplay:10.37,2013-03-22 07:03:00,
2013-03-22 03:08:00,28.4,13.9,29.63,WNW,285,3.5,3.5,54,0.00,FEW,,0.00,0.0,WeatherDisplay:10.37,2013-03-22 07:08:00,
2013-03-22 03:13:00,28.4,13.9,29.63,WNW,299,3.5,3.5,54,0.00,FEW,,0.00,0.0,WeatherDisplay:10.37,2013-03-22 07:13:00,
2013-03-22 03:18:00,28.4,13.9,29.63,WSW,244,6.9,6.9,54,0.00,BKN,,0.00,0.0,WeatherDisplay:10.37,2013-03-22 07:18:00,
2013-03-22 03:23:00,28.4,13.9,29.63,WNW,294,6.9,6.9,54,0.00,BKN,,0.00,0.0,WeatherDisplay:10.37,2013-03-22 07:23:00,
2013-03-22 03:28:00,28.2,14.1,29.63,WNW,287,3.5,3.5,55,0.00,BKN,,0.00,0.0,WeatherDisplay:10.37,2013-03-22 07:28:00,
2013-03-22 03:33:00,28.2,14.1,29.63,WNW,285,1.1,1.1,55,0.00,BKN,,0.00,0.0,WeatherDisplay:10.37,2013-03-22 07:33:00,
2013-03-22 03:38:00,28.2,14.1,29.63,NW,312,2.0,2.0,55,0.00,BKN,,0.00,0.0,WeatherDisplay:10.37,2013-03-22 07:38:00,
2013-03-22 03:43:00,28.2,14.1,29.63,WSW,243,1.1,1.1,55,0.00,BKN,,0.00,0.0,WeatherDisplay:10.37,2013-03-22 07:43:00,
2013-03-22 03:48:00,28.1,14.0,29.63,NW,305,3.5,3.5,55,0.00,BKN,,0.00,0.0,WeatherDisplay:10.37,2013-03-22 07:48:00,
2013-03-22 03:53:00,28.1,14.4,29.63,NNW,329,6.0,6.0,56,0.00,BKN,,0.00,0.0,WeatherDisplay:10.37,2013-03-22 07:53:00,
2013-03-22 03:58:00,28.1,14.4,29.63,SSW,203,3.5,3.5,56,0.00,BKN,,0.00,0.0,WeatherDisplay:10.37,2013-03-22 07:58:00,
2013-03-22 04:03:00,28.1,14.4,29.63,West,272,0.0,0.0,56,0.00,BKN,,0.00,0.0,WeatherDisplay:10.37,2013-03-22 08:03:00,
2013-03-22 04:08:00,28.1,14.4,29.63,WNW,299,3.5,3.5,56,0.00,BKN,,0.00,0.0,WeatherDisplay:10.37,2013-03-22 08:08:00,
2013-03-22 04:13:00,28.1,14.4,29.62,NW,304,5.0,5.0,56,0.00,BKN,,0.00,0.0,WeatherDisplay:10.37,2013-03-22 08:13:00,
2013-03-22 04:18:00,28.1,14.8,29.62,WSW,243,3.5,3.5,57,0.00,FEW,,0.00,0.0,WeatherDisplay:10.37,2013-03-22 08:18:00,
2013-03-22 04:23:00,28.1,14.8,29.62,NW,326,2.3,2.3,57,0.00,FEW,,0.00,0.0,WeatherDisplay:10.37,2013-03-22 08:23:00,
2013-03-22 04:28:00,28.1,14.8,29.62,West,274,4.6,4.6,57,0.00,FEW,,0.00,0.0,WeatherDisplay:10.37,2013-03-22 08:28:00,
2013-03-22 04:33:00,28.1,14.8,29.62,WSW,241,4.6,4.6,57,0.00,FEW,,0.00,0.0,WeatherDisplay:10.37,2013-03-22 08:33:00,
2013-03-22 04:38:00,28.1,15.2,29.62,West,275,6.9,6.9,58,0.00,FEW,,0.00,0.0,WeatherDisplay:10.37,2013-03-22 08:38:00,
2013-03-22 04:43:00,28.1,15.2,29.62,West,277,5.8,5.8,58,0.00,FEW,,0.00,0.0,WeatherDisplay:10.37,2013-03-22 08:43:00,
2013-03-22 04:48:00,28.1,15.2,29.62,West,271,5.8,5.8,58,0.00,FEW,,0.00,0.0,WeatherDisplay:10.37,2013-03-22 08:48:00,
2013-03-22 04:53:00,28.1,15.2,29.62,WNW,292,3.0,3.0,58,0.00,FEW,,0.00,0.0,WeatherDisplay:10.37,2013-03-22 08:53:00,
2013-03-22 04:58:00,28.1,15.6,29.62,NNW,330,2.3,2.3,59,0.00,FEW,,0.00,0.0,WeatherDisplay:10.37,2013-03-22 08:58:00,
2013-03-22 05:03:00,28.1,15.6,29.62,WNW,296,8.1,8.1,59,0.00,FEW,,0.00,0.0,WeatherDisplay:10.37,2013-03-22 09:03:00,
2013-03-22 05:08:00,28.1,15.6,29.62,WNW,296,11.5,11.5,59,0.00,FEW,,0.00,0.0,WeatherDisplay:10.37,2013-03-22 09:08:00,
2013-03-22 05:13:00,28.1,16.0,29.63,SW,223,3.5,3.5,60,0.00,FEW,,0.00,0.0,WeatherDisplay:10.37,2013-03-22 09:13:00,
2013-03-22 05:18:00,28.1,16.0,29.63,WNW,282,10.4,10.4,60,0.00,CLR,,0.00,0.0,WeatherDisplay:10.37,2013-03-22 09:18:00,
2013-03-22 05:23:00,28.1,16.0,29.63,NNE,16,2.3,2.3,60,0.00,CLR,,0.00,0.0,WeatherDisplay:10.37,2013-03-22 09:23:00,
2013-03-22 05:28:00,28.1,16.0,29.63,SW,229,1.1,1.1,60,0.00,CLR,,0.00,0.0,WeatherDisplay:10.37,2013-03-22 09:28:00,
2013-03-22 05:33:00,28.1,16.0,29.63,WNW,302,4.6,4.6,60,0.00,CLR,,0.00,0.0,WeatherDisplay:10.37,2013-03-22 09:33:00,
2013-03-22 05:38:00,28.1,16.0,29.63,WNW,302,7.0,7.0,60,0.00,CLR,,0.00,0.0,WeatherDisplay:10.37,2013-03-22 09:38:00,
2013-03-22 05:43:00,28.1,16.4,29.63,WNW,298,8.1,8.1,61,0.00,CLR,,0.00,0.0,WeatherDisplay:10.37,2013-03-22 09:43:00,
2013-03-22 05:48:00,28.2,16.5,29.63,SSW,205,10.4,10.4,61,0.00,CLR,,0.00,0.0,WeatherDisplay:10.37,2013-03-22 09:48:00,
2013-03-22 05:53:00,28.2,16.5,29.63,South,186,4.6,4.6,61,0.00,CLR,,0.00,0.0,WeatherDisplay:10.37,2013-03-22 09:53:00,
2013-03-22 05:58:00,28.2,16.1,29.64,West,268,3.5,3.5,60,0.00,CLR,,0.00,0.0,WeatherDisplay:10.37,2013-03-22 09:58:00,
2013-03-22 06:03:00,28.2,16.5,29.64,West,272,2.0,2.0,61,0.00,CLR,,0.00,0.0,WeatherDisplay:10.37,2013-03-22 10:03:00,
2013-03-22 06:08:00,28.2,16.5,29.64,WNW,291,10.4,10.4,61,0.00,CLR,,0.00,0.0,WeatherDisplay:10.37,2013-03-22 10:08:00,
2013-03-22 06:13:00,28.2,16.1,29.65,West,280,2.3,2.3,60,0.00,CLR,,0.00,0.0,WeatherDisplay:10.37,2013-03-22 10:13:00,
2013-03-22 06:18:00,28.2,16.1,29.65,WNW,287,2.3,2.3,60,0.00,FEW,,0.00,0.0,WeatherDisplay:10.37,2013-03-22 10:18:00,
2013-03-22 06:24:00,28.2,16.1,29.65,SW,227,2.3,0.0,60,0.00,FEW,,0.00,0.0,WeatherDisplay:10.37,2013-03-22 10:24:00,
2013-03-22 06:29:00,28.1,16.0,29.65,South,175,4.6,4.6,60,0.00,FEW,,0.00,0.0,WeatherDisplay:10.37,2013-03-22 10:29:00,
2013-03-22 06:34:00,28.1,16.0,29.65,WSW,254,2.0,2.0,60,0.00,FEW,,0.00,0.0,WeatherDisplay:10.37,2013-03-22 10:34:00,
2013-03-22 06:39:00,27.9,16.2,29.65,NW,312,2.0,2.0,61,0.00,FEW,,0.00,0.0,WeatherDisplay:10.37,2013-03-22 10:39:00,
2013-03-22 06:44:00,27.9,16.2,29.65,WNW,288,1.1,1.1,61,0.00,FEW,,0.00,0.0,WeatherDisplay:10.37,2013-03-22 10:44:00,
2013-03-22 06:49:00,27.9,16.2,29.65,WSW,258,3.5,3.5,61,0.00,FEW,,0.00,0.0,WeatherDisplay:10.37,2013-03-22 10:49:00,
2013-03-22 06:54:00,27.8,16.5,29.65,South,185,1.1,1.1,62,0.00,FEW,,0.00,0.0,WeatherDisplay:10.37,2013-03-22 10:54:00,
2013-03-22 06:59:00,27.8,16.5,29.66,NW,323,2.0,2.0,62,0.00,FEW,,0.00,5.0,WeatherDisplay:10.37,2013-03-22 10:59:00,
2013-03-22 07:04:00,27.8,16.5,29.66,West,268,6.0,6.0,62,0.00,FEW,,0.00,7.0,WeatherDisplay:10.37,2013-03-22 11:04:00,
2013-03-22 07:09:00,27.8,16.8,29.66,West,275,1.1,1.1,63,0.00,FEW,,0.00,12.0,WeatherDisplay:10.37,2013-03-22 11:09:00,
2013-03-22 07:14:00,27.8,16.8,29.67,WNW,291,2.3,2.3,63,0.00,FEW,,0.00,16.0,WeatherDisplay:10.37,2013-03-22 11:14:00,
2013-03-22 07:19:00,27.8,17.2,29.67,SW,234,2.3,2.3,64,0.00,SCT,,0.00,21.0,WeatherDisplay:10.37,2013-03-22 11:19:00,
2013-03-22 07:24:00,27.9,17.3,29.67,SSW,213,1.1,1.1,64,0.00,SCT,,0.00,30.0,WeatherDisplay:10.37,2013-03-22 11:24:00,
2013-03-22 07:29:00,27.9,17.3,29.67,SW,219,3.5,3.5,64,0.00,SCT,,0.00,33.0,WeatherDisplay:10.37,2013-03-22 11:29:00,
2013-03-22 07:34:00,28.1,17.5,29.67,West,275,2.3,2.3,64,0.00,SCT,,0.00,42.0,WeatherDisplay:10.37,2013-03-22 11:34:00,
2013-03-22 07:39:00,28.2,17.6,29.67,WSW,251,1.1,1.1,64,0.00,SCT,,0.00,49.0,WeatherDisplay:10.37,2013-03-22 11:39:00,
2013-03-22 07:44:00,28.4,17.8,29.67,West,277,1.1,0.0,64,0.00,SCT,,0.00,56.0,WeatherDisplay:10.37,2013-03-22 11:44:00,
2013-03-22 07:49:00,28.7,18.1,29.67,West,261,1.1,0.0,64,0.00,SCT,,0.00,60.0,WeatherDisplay:10.37,2013-03-22 11:49:00,
2013-03-22 07:54:00,28.8,17.8,29.67,WNW,282,1.1,1.1,63,0.00,SCT,,0.00,58.0,WeatherDisplay:10.37,2013-03-22 11:54:00,
2013-03-22 07:59:00,29.0,17.6,29.68,WNW,301,2.3,2.3,62,0.00,SCT,,0.00,51.0,WeatherDisplay:10.37,2013-03-22 11:59:00,
2013-03-22 08:04:00,29.1,17.7,29.68,WNW,295,4.6,4.6,62,0.00,SCT,,0.00,40.0,WeatherDisplay:10.37,2013-03-22 12:04:00,
2013-03-22 08:09:00,29.3,17.9,29.68,North,10,5.8,5.8,62,0.00,SCT,,0.00,39.0,WeatherDisplay:10.37,2013-03-22 12:09:00,
2013-03-22 08:14:00,29.3,17.5,29.69,SW,216,1.1,0.0,61,0.00,SCT,,0.00,39.0,WeatherDisplay:10.37,2013-03-22 12:14:00,
2013-03-22 08:19:00,29.3,17.5,29.69,SW,230,4.6,4.6,61,0.00,BKN,,0.00,37.0,WeatherDisplay:10.37,2013-03-22 12:19:00,
2013-03-22 08:24:00,29.4,18.0,29.69,NW,308,6.9,6.9,62,0.00,BKN,,0.00,135.0,WeatherDisplay:10.37,2013-03-22 12:24:00,
2013-03-22 08:29:00,29.7,17.9,29.69,NW,304,1.1,1.1,61,0.00,BKN,,0.00,67.0,WeatherDisplay:10.37,2013-03-22 12:29:00,
2013-03-22 08:34:00,30.1,17.9,29.69,West,278,3.5,3.5,60,0.00,BKN,,0.00,148.0,WeatherDisplay:10.37,2013-03-22 12:34:00,
2013-03-22 08:39:00,30.6,18.3,29.69,NW,308,4.6,4.6,60,0.00,BKN,,0.00,151.0,WeatherDisplay:10.37,2013-03-22 12:39:00,
2013-03-22 08:44:00,31.0,18.3,29.70,SSE,148,3.5,3.5,59,0.00,BKN,,0.00,148.0,WeatherDisplay:10.37,2013-03-22 12:44:00,
2013-03-22 08:49:00,31.5,18.8,29.70,NW,306,1.1,1.1,59,0.00,BKN,,0.00,209.0,WeatherDisplay:10.37,2013-03-22 12:49:00,
2013-03-22 08:54:00,32.1,19.0,29.70,SSW,210,2.3,2.3,58,0.00,BKN,,0.00,155.0,WeatherDisplay:10.37,2013-03-22 12:54:00,
2013-03-22 08:59:00,32.5,18.5,29.70,West,271,4.0,4.0,56,0.00,BKN,,0.00,225.0,WeatherDisplay:10.37,2013-03-22 12:59:00,
2013-03-22 09:04:00,32.9,18.9,29.70,NW,308,3.5,3.5,56,0.00,BKN,,0.00,227.0,WeatherDisplay:10.37,2013-03-22 13:04:00,
2013-03-22 09:09:00,33.4,18.9,29.70,WNW,289,4.6,4.6,55,0.00,BKN,,0.00,238.0,WeatherDisplay:10.37,2013-03-22 13:09:00,
2013-03-22 09:14:00,33.8,18.9,29.70,WSW,240,5.8,5.8,54,0.00,BKN,,0.00,350.0,WeatherDisplay:10.37,2013-03-22 13:14:00,
2013-03-22 09:19:00,34.6,19.6,29.70,NW,311,3.5,3.5,54,0.00,SCT,,0.00,368.0,WeatherDisplay:10.37,2013-03-22 13:19:00,
2013-03-22 09:24:00,35.2,19.8,29.70,NW,312,6.9,6.9,53,0.00,SCT,,0.00,405.0,WeatherDisplay:10.37,2013-03-22 13:24:00,
2013-03-22 09:29:00,35.6,19.7,29.69,NNW,333,5.8,5.8,52,0.00,SCT,,0.00,456.0,WeatherDisplay:10.37,2013-03-22 13:29:00,
2013-03-22 09:34:00,35.9,19.5,29.69,West,274,5.8,5.8,51,0.00,SCT,,0.00,197.0,WeatherDisplay:10.37,2013-03-22 13:34:00,
2013-03-22 09:39:00,35.8,19.0,29.69,South,186,11.5,11.5,50,0.00,SCT,,0.00,174.0,WeatherDisplay:10.37,2013-03-22 13:39:00,
2013-03-22 09:44:00,35.5,19.1,29.71,SSW,213,12.0,12.0,51,0.00,SCT,,0.00,176.0,WeatherDisplay:10.37,2013-03-22 13:44:00,
2013-03-22 09:49:00,35.0,18.7,29.71,NW,313,13.8,13.8,51,0.00,SCT,,0.00,206.0,WeatherDisplay:10.37,2013-03-22 13:49:00,
2013-03-22 09:54:00,35.2,18.9,29.71,West,278,4.6,4.6,51,0.00,SCT,,0.00,199.0,WeatherDisplay:10.37,2013-03-22 13:54:00,
2013-03-22 09:59:00,35.3,19.0,29.71,WSW,254,2.3,2.3,51,0.00,SCT,,0.00,151.0,WeatherDisplay:10.37,2013-03-22 13:59:00,
2013-03-22 10:04:00,35.5,19.1,29.71,NNW,333,8.1,8.1,51,0.00,SCT,,0.00,148.0,WeatherDisplay:10.37,2013-03-22 14:04:00,
2013-03-22 10:09:00,35.3,19.0,29.71,South,181,6.9,6.9,51,0.00,SCT,,0.00,157.0,WeatherDisplay:10.37,2013-03-22 14:09:00,
2013-03-22 10:14:00,35.5,19.1,29.71,South,169,1.1,0.0,51,0.00,SCT,,0.00,139.0,WeatherDisplay:10.37,2013-03-22 14:14:00,
2013-03-22 10:19:00,35.5,19.6,29.71,NE,34,8.1,8.1,52,0.00,BKN,,0.00,238.0,WeatherDisplay:10.37,2013-03-22 14:19:00,
2013-03-22 10:24:00,35.3,19.0,29.71,SSW,210,2.3,2.3,51,0.00,BKN,,0.00,209.0,WeatherDisplay:10.37,2013-03-22 14:24:00,
2013-03-22 10:29:00,35.2,19.3,29.71,NW,305,5.0,5.0,52,0.00,BKN,,0.00,121.0,WeatherDisplay:10.37,2013-03-22 14:29:00,
2013-03-22 10:34:00,35.3,18.5,29.71,North,349,6.9,6.9,50,0.00,BKN,,0.00,248.0,WeatherDisplay:10.37,2013-03-22 14:34:00,
2013-03-22 10:39:00,35.8,19.0,29.71,WSW,256,1.1,0.0,50,0.00,BKN,,0.00,454.0,WeatherDisplay:10.37,2013-03-22 14:39:00,
2013-03-22 10:44:00,36.0,18.2,29.71,NW,306,10.0,10.0,48,0.00,BKN,,0.00,167.0,WeatherDisplay:10.37,2013-03-22 14:44:00,
2013-03-22 10:49:00,36.2,18.4,29.71,WSW,253,1.1,1.1,48,0.00,BKN,,0.00,255.0,WeatherDisplay:10.37,2013-03-22 14:49:00,
2013-03-22 10:54:00,36.6,18.2,29.71,West,274,10.4,10.4,47,0.00,BKN,,0.00,241.0,WeatherDisplay:10.37,2013-03-22 14:54:00,
2013-03-22 10:59:00,36.9,18.5,29.70,SSE,164,3.5,3.5,47,0.00,BKN,,0.00,327.0,WeatherDisplay:10.37,2013-03-22 14:59:00,
2013-03-22 11:04:00,37.6,18.7,29.70,West,263,4.6,4.6,46,0.00,BKN,,0.00,588.0,WeatherDisplay:10.37,2013-03-22 15:04:00,
2013-03-22 11:09:00,38.5,18.4,29.70,SSW,195,12.7,12.7,44,0.00,BKN,,0.00,552.0,WeatherDisplay:10.37,2013-03-22 15:09:00,
2013-03-22 11:14:00,38.9,18.3,29.69,WNW,301,3.5,3.5,43,0.00,BKN,,0.00,693.0,WeatherDisplay:10.37,2013-03-22 15:14:00,
2013-03-22 11:19:00,39.8,18.5,29.69,SE,133,5.8,5.8,42,0.00,-SN,,0.00,725.0,WeatherDisplay:10.37,2013-03-22 15:19:00,
2013-03-22 11:24:00,39.9,17.5,29.69,NW,305,11.5,11.5,40,0.00,-SN,,0.00,183.0,WeatherDisplay:10.37,2013-03-22 15:24:00,
2013-03-22 11:29:00,39.8,18.0,29.69,WNW,292,11.5,11.5,41,0.00,-SN,,0.00,151.0,WeatherDisplay:10.37,2013-03-22 15:29:00,
2013-03-22 11:34:00,39.6,18.4,29.69,North,354,11.0,11.0,42,0.00,BKN,,0.00,725.0,WeatherDisplay:10.37,2013-03-22 15:34:00,
2013-03-22 11:39:00,40.1,17.1,29.69,NW,304,11.5,11.5,39,0.00,BKN,,0.00,825.0,WeatherDisplay:10.37,2013-03-22 15:39:00,
2013-03-22 11:44:00,40.1,16.5,29.69,NNW,328,5.8,5.8,38,0.00,BKN,,0.00,227.0,WeatherDisplay:10.37,2013-03-22 15:44:00,
2013-03-22 11:49:00,39.5,15.3,29.69,ESE,120,10.4,10.4,37,0.00,-SN,,0.00,234.0,WeatherDisplay:10.37,2013-03-22 15:49:00,
2013-03-22 11:54:00,39.1,15.6,29.69,North,357,11.5,11.5,38,0.00,-SN,,0.00,234.0,WeatherDisplay:10.37,2013-03-22 15:54:00,
2013-03-22 11:59:00,39.1,15.6,29.69,ESE,113,5.8,5.8,38,0.00,-SN,,0.00,238.0,WeatherDisplay:10.37,2013-03-22 15:59:00,
2013-03-22 12:04:00,39.2,15.7,29.69,WNW,285,12.7,12.7,38,0.00,BKN,,0.00,975.0,WeatherDisplay:10.37,2013-03-22 16:04:00,
2013-03-22 12:09:00,39.5,16.6,29.69,WNW,294,4.0,4.0,39,0.00,BKN,,0.00,283.0,WeatherDisplay:10.37,2013-03-22 16:09:00,
2013-03-22 12:14:00,39.5,17.7,29.69,SSW,196,6.9,6.9,41,0.00,BKN,,0.00,238.0,WeatherDisplay:10.37,2013-03-22 16:14:00,
2013-03-22 12:19:00,39.2,18.0,29.69,NNW,337,3.5,3.5,42,0.00,-SN,,0.00,304.0,WeatherDisplay:10.37,2013-03-22 16:19:00,
2013-03-22 12:24:00,38.9,17.2,29.69,WNW,287,8.1,8.1,41,0.00,-SN,,0.00,204.0,WeatherDisplay:10.37,2013-03-22 16:24:00,
2013-03-22 12:32:00,38.2,17.1,29.69,SSE,152,3.5,3.5,42,0.00,-SN,,0.00,825.0,WeatherDisplay:10.37,2013-03-22 16:32:00,
2013-03-22 12:37:00,38.9,15.4,29.69,West,280,8.1,8.1,38,0.00,-SN,,0.00,829.0,WeatherDisplay:10.37,2013-03-22 16:37:00,
2013-03-22 12:42:00,39.9,15.7,29.69,NW,309,7.0,7.0,37,0.00,-SN,,0.00,301.0,WeatherDisplay:10.37,2013-03-22 16:42:00,
2013-03-22 12:47:00,40.1,16.5,29.68,NW,304,6.9,6.9,38,0.00,BKN,,0.00,229.0,WeatherDisplay:10.37,2013-03-22 16:47:00,
2013-03-22 12:52:00,39.8,16.2,29.68,WNW,284,5.8,5.8,38,0.00,BKN,,0.00,294.0,WeatherDisplay:10.37,2013-03-22 16:52:00,
2013-03-22 12:57:00,39.8,15.6,29.68,North,0,6.9,6.9,37,0.00,BKN,,0.00,326.0,WeatherDisplay:10.37,2013-03-22 16:57:00,
2013-03-22 13:03:00,39.5,16.6,29.68,NW,319,4.6,4.6,39,0.00,BKN,,0.00,190.0,WeatherDisplay:10.37,2013-03-22 17:03:00,
2013-03-22 13:09:00,39.2,18.5,29.68,North,357,6.9,6.9,43,0.00,BKN,,0.00,324.0,WeatherDisplay:10.37,2013-03-22 17:09:00,
2013-03-22 13:14:00,39.1,18.5,29.69,West,278,8.0,8.0,43,0.00,BKN,,0.00,283.0,WeatherDisplay:10.37,2013-03-22 17:14:00,
2013-03-22 13:19:00,38.9,18.8,29.69,SSW,210,6.9,6.9,44,0.00,BKN,,0.00,324.0,WeatherDisplay:10.37,2013-03-22 17:19:00,
2013-03-22 13:24:00,39.5,18.3,29.69,WSW,246,6.9,6.9,42,0.00,BKN,,0.00,318.0,WeatherDisplay:10.37,2013-03-22 17:24:00,
2013-03-22 13:29:00,39.8,17.4,29.68,WSW,239,2.3,2.3,40,0.00,BKN,,0.00,216.0,WeatherDisplay:10.37,2013-03-22 17:29:00,
2013-03-22 13:34:00,39.8,17.4,29.68,NW,316,11.5,11.5,40,0.00,BKN,,0.00,276.0,WeatherDisplay:10.37,2013-03-22 17:34:00,
2013-03-22 13:39:00,39.9,18.6,29.68,WNW,294,3.5,3.5,42,0.00,BKN,,0.00,405.0,WeatherDisplay:10.37,2013-03-22 17:39:00,
2013-03-22 13:44:00,39.9,18.1,29.68,WNW,296,5.8,5.8,41,0.00,BKN,,0.00,243.0,WeatherDisplay:10.37,2013-03-22 17:44:00,
2013-03-22 13:49:00,39.9,16.9,29.68,North,0,2.3,2.3,39,0.00,BKN,,0.00,229.0,WeatherDisplay:10.37,2013-03-22 17:49:00,
2013-03-22 13:54:00,40.2,17.8,29.68,WNW,294,6.9,6.9,40,0.00,BKN,,0.00,190.0,WeatherDisplay:10.37,2013-03-22 17:54:00,
2013-03-22 13:59:00,40.2,18.3,29.68,NW,311,3.5,3.5,41,0.00,BKN,,0.00,373.0,WeatherDisplay:10.37,2013-03-22 17:59:00,
2013-03-22 14:04:00,40.6,17.5,29.68,South,182,3.5,3.5,39,0.00,BKN,,0.00,1036.0,WeatherDisplay:10.37,2013-03-22 18:04:00,
2013-03-22 14:09:00,41.2,16.2,29.68,North,352,11.5,11.5,36,0.00,BKN,,0.00,253.0,WeatherDisplay:10.37,2013-03-22 18:09:00,
2013-03-22 14:14:00,41.2,16.2,29.68,WSW,241,3.5,3.5,36,0.00,BKN,,0.00,232.0,WeatherDisplay:10.37,2013-03-22 18:14:00,
2013-03-22 14:19:00,41.1,16.8,29.68,WSW,241,1.1,1.1,37,0.00,BKN,,0.00,220.0,WeatherDisplay:10.37,2013-03-22 18:19:00,
2013-03-22 14:24:00,40.6,16.9,29.68,West,280,5.8,5.8,38,0.00,BKN,,0.00,253.0,WeatherDisplay:10.37,2013-03-22 18:24:00,
2013-03-22 14:29:00,40.6,16.3,29.67,West,263,8.1,8.1,37,0.00,BKN,,0.00,253.0,WeatherDisplay:10.37,2013-03-22 18:29:00,
2013-03-22 14:34:00,40.9,15.3,29.67,WNW,289,11.5,11.5,35,0.00,BKN,,0.00,248.0,WeatherDisplay:10.37,2013-03-22 18:34:00,
2013-03-22 14:39:00,40.9,15.3,29.67,WSW,251,2.3,2.3,35,0.00,BKN,,0.00,922.0,WeatherDisplay:10.37,2013-03-22 18:39:00,
2013-03-22 14:44:00,41.6,15.9,29.67,South,181,5.8,5.8,35,0.00,BKN,,0.00,896.0,WeatherDisplay:10.37,2013-03-22 18:44:00,
2013-03-22 14:49:00,42.5,16.1,29.67,NW,304,4.6,4.6,34,0.00,BKN,,0.00,896.0,WeatherDisplay:10.37,2013-03-22 18:49:00,
2013-03-22 14:54:00,43.1,15.9,29.67,NW,322,11.5,11.5,33,0.00,BKN,,0.00,262.0,WeatherDisplay:10.37,2013-03-22 18:54:00,
2013-03-22 14:59:00,42.6,14.8,29.67,North,0,6.0,6.0,32,0.00,BKN,,0.00,206.0,WeatherDisplay:10.37,2013-03-22 18:59:00,
2013-03-22 15:04:00,42.2,16.5,29.67,NW,313,12.7,12.7,35,0.00,BKN,,0.00,727.0,WeatherDisplay:10.37,2013-03-22 19:04:00,
2013-03-22 15:09:00,42.3,16.6,29.67,NNW,337,8.1,8.1,35,0.00,BKN,,0.00,727.0,WeatherDisplay:10.37,2013-03-22 19:09:00,
2013-03-22 15:14:00,42.9,16.4,29.67,West,267,8.1,8.1,34,0.00,BKN,,0.00,806.0,WeatherDisplay:10.37,2013-03-22 19:14:00,
2013-03-22 15:19:00,43.5,15.5,29.67,SSW,210,17.3,17.3,32,0.00,BKN,,0.00,273.0,WeatherDisplay:10.37,2013-03-22 19:19:00,
2013-03-22 15:24:00,43.2,15.3,29.67,NW,313,11.5,11.5,32,0.00,BKN,,0.00,294.0,WeatherDisplay:10.37,2013-03-22 19:24:00,
2013-03-22 15:29:00,42.6,15.5,29.67,WNW,289,2.3,2.3,33,0.00,BKN,,0.00,282.0,WeatherDisplay:10.37,2013-03-22 19:29:00,
2013-03-22 15:34:00,42.5,16.1,29.67,North,0,6.0,6.0,34,0.00,BKN,,0.00,227.0,WeatherDisplay:10.37,2013-03-22 19:34:00,
2013-03-22 15:39:00,42.2,15.8,29.67,NNW,339,2.3,2.3,34,0.00,BKN,,0.00,199.0,WeatherDisplay:10.37,2013-03-22 19:39:00,
2013-03-22 15:44:00,42.1,16.4,29.67,NNW,337,4.6,4.6,35,0.00,BKN,,0.00,250.0,WeatherDisplay:10.37,2013-03-22 19:44:00,
2013-03-22 15:49:00,41.8,16.1,29.67,West,264,5.8,5.8,35,0.00,BKN,,0.00,208.0,WeatherDisplay:10.37,2013-03-22 19:49:00,
2013-03-22 15:54:00,41.8,15.4,29.67,West,275,1.1,1.1,34,0.00,BKN,,0.00,262.0,WeatherDisplay:10.37,2013-03-22 19:54:00,
2013-03-22 15:59:00,42.1,15.7,29.67,NW,320,5.0,5.0,34,0.00,BKN,,0.00,732.0,WeatherDisplay:10.37,2013-03-22 19:59:00,
2013-03-22 16:04:00,42.3,15.9,29.67,WNW,302,2.3,2.3,34,0.00,BKN,,0.00,259.0,WeatherDisplay:10.37,2013-03-22 20:04:00,
2013-03-22 16:09:00,42.5,16.1,29.67,North,354,3.5,3.5,34,0.00,BKN,,0.00,172.0,WeatherDisplay:10.37,2013-03-22 20:09:00,
2013-03-22 16:14:00,42.3,15.2,29.67,WNW,299,8.1,8.1,33,0.00,BKN,,0.00,158.0,WeatherDisplay:10.37,2013-03-22 20:14:00,
2013-03-22 16:19:00,42.1,15.7,29.67,WSW,244,12.7,12.7,34,0.00,BKN,,0.00,121.0,WeatherDisplay:10.37,2013-03-22 20:19:00,
2013-03-22 16:24:00,41.6,15.9,29.67,NNW,330,17.3,17.3,35,0.00,BKN,,0.00,162.0,WeatherDisplay:10.37,2013-03-22 20:24:00,
2013-03-22 16:29:00,41.2,15.6,29.68,WNW,302,6.9,6.9,35,0.00,BKN,,0.00,179.0,WeatherDisplay:10.37,2013-03-22 20:29:00,
2013-03-22 16:34:00,41.1,16.1,29.68,NW,308,4.6,4.6,36,0.00,BKN,,0.00,167.0,WeatherDisplay:10.37,2013-03-22 20:34:00,
2013-03-22 16:39:00,40.9,16.0,29.68,North,352,8.1,8.1,36,0.00,BKN,,0.00,192.0,WeatherDisplay:10.37,2013-03-22 20:39:00,
2013-03-22 16:44:00,40.8,15.9,29.68,SW,217,11.5,11.5,36,0.00,BKN,,0.00,187.0,WeatherDisplay:10.37,2013-03-22 20:44:00,
2013-03-22 16:49:00,40.6,16.3,29.68,West,278,4.6,4.6,37,0.00,BKN,,0.00,176.0,WeatherDisplay:10.37,2013-03-22 20:49:00,
2013-03-22 16:54:00,40.8,16.5,29.68,NW,308,6.9,6.9,37,0.00,BKN,,0.00,151.0,WeatherDisplay:10.37,2013-03-22 20:54:00,
2013-03-22 17:00:00,40.8,16.5,29.69,North,0,5.8,5.8,37,0.00,BKN,,0.00,120.0,WeatherDisplay:10.37,2013-03-22 21:00:00,
2013-03-22 17:05:00,40.8,16.5,29.69,NNW,333,5.8,5.8,37,0.00,BKN,,0.00,114.0,WeatherDisplay:10.37,2013-03-22 21:05:00,
2013-03-22 17:10:00,40.8,16.5,29.69,NW,306,3.5,3.5,37,0.00,BKN,,0.00,104.0,WeatherDisplay:10.37,2013-03-22 21:10:00,
2013-03-22 17:15:00,40.6,16.9,29.69,NW,325,2.3,2.3,38,0.00,BKN,,0.00,91.0,WeatherDisplay:10.37,2013-03-22 21:15:00,
2013-03-22 17:20:00,40.5,17.5,29.69,WNW,291,2.3,2.3,39,0.00,BKN,,0.00,93.0,WeatherDisplay:10.37,2013-03-22 21:20:00,
2013-03-22 17:25:00,40.5,17.5,29.69,NW,306,1.1,1.1,39,0.00,BKN,,0.00,90.0,WeatherDisplay:10.37,2013-03-22 21:25:00,
2013-03-22 17:30:00,40.5,17.5,29.69,WNW,301,5.8,5.8,39,0.00,BKN,,0.00,81.0,WeatherDisplay:10.37,2013-03-22 21:30:00,
2013-03-22 17:35:00,40.5,17.5,29.69,NNW,328,8.1,8.1,39,0.00,BKN,,0.00,77.0,WeatherDisplay:10.37,2013-03-22 21:35:00,
2013-03-22 17:40:00,40.3,17.3,29.69,NW,305,8.1,8.1,39,0.00,BKN,,0.00,76.0,WeatherDisplay:10.37,2013-03-22 21:40:00,
2013-03-22 17:45:00,40.2,17.2,29.70,NNW,329,5.8,5.8,39,0.00,BKN,,0.00,74.0,WeatherDisplay:10.37,2013-03-22 21:45:00,
2013-03-22 17:50:00,40.1,17.7,29.70,WNW,298,3.5,3.5,40,0.00,BKN,,0.00,83.0,WeatherDisplay:10.37,2013-03-22 21:50:00,
2013-03-22 17:55:00,40.1,17.7,29.70,North,356,6.0,6.0,40,0.00,BKN,,0.00,84.0,WeatherDisplay:10.37,2013-03-22 21:55:00,
2013-03-22 18:00:00,40.1,17.7,29.70,North,1,7.0,7.0,40,0.00,BKN,,0.00,90.0,WeatherDisplay:10.37,2013-03-22 22:00:00,
2013-03-22 18:05:00,40.1,17.1,29.70,WNW,296,11.5,11.5,39,0.00,BKN,,0.00,76.0,WeatherDisplay:10.37,2013-03-22 22:05:00,
2013-03-22 18:10:00,39.9,16.9,29.70,West,281,5.8,5.8,39,0.00,BKN,,0.00,72.0,WeatherDisplay:10.37,2013-03-22 22:10:00,
2013-03-22 18:15:00,39.8,17.4,29.71,North,0,12.7,12.7,40,0.00,BKN,,0.00,62.0,WeatherDisplay:10.37,2013-03-22 22:15:00,
2013-03-22 18:20:00,39.6,17.2,29.71,NW,325,3.5,3.5,40,0.00,BKN,,0.00,56.0,WeatherDisplay:10.37,2013-03-22 22:20:00,
2013-03-22 18:25:00,39.6,17.8,29.71,NNW,346,5.8,5.8,41,0.00,BKN,,0.00,67.0,WeatherDisplay:10.37,2013-03-22 22:25:00,
2013-03-22 18:30:00,39.6,17.2,29.72,NW,312,10.4,10.4,40,0.00,BKN,,0.00,48.0,WeatherDisplay:10.37,2013-03-22 22:30:00,
2013-03-22 18:35:00,39.6,17.2,29.72,WNW,282,4.6,4.6,40,0.00,OVC,,0.00,39.0,WeatherDisplay:10.37,2013-03-22 22:35:00,
2013-03-22 18:40:00,39.5,17.1,29.72,NW,313,4.6,4.6,40,0.00,OVC,,0.00,32.0,WeatherDisplay:10.37,2013-03-22 22:40:00,
2013-03-22 18:46:00,39.2,16.9,29.72,ENE,76,6.9,6.9,40,0.00,OVC,,0.00,26.0,WeatherDisplay:10.37,2013-03-22 22:46:00,
2013-03-22 18:51:00,38.9,17.2,29.72,North,0,3.5,3.5,41,0.00,OVC,,0.00,19.0,WeatherDisplay:10.37,2013-03-22 22:51:00,
2013-03-22 18:56:00,38.8,17.1,29.72,West,275,4.6,4.6,41,0.00,OVC,,0.00,16.0,WeatherDisplay:10.37,2013-03-22 22:56:00,
2013-03-22 19:01:00,38.5,16.8,29.73,ESE,112,3.5,3.5,41,0.00,OVC,,0.00,12.0,WeatherDisplay:10.37,2013-03-22 23:01:00,
2013-03-22 19:07:00,38.2,17.1,29.73,WNW,294,8.1,8.1,42,0.00,OVC,,0.00,11.0,WeatherDisplay:10.37,2013-03-22 23:07:00,
2013-03-22 19:12:00,38.0,16.9,29.73,West,280,11.5,11.5,42,0.00,OVC,,0.00,7.0,WeatherDisplay:10.37,2013-03-22 23:12:00,
2013-03-22 19:17:00,37.8,17.3,29.74,NNW,340,5.8,5.8,43,0.00,BKN,,0.00,5.0,WeatherDisplay:10.37,2013-03-22 23:17:00,
2013-03-22 19:22:00,37.6,17.1,29.74,WNW,294,2.3,2.3,43,0.00,BKN,,0.00,0.0,WeatherDisplay:10.37,2013-03-22 23:22:00,
2013-03-22 19:27:00,37.6,17.6,29.74,NW,304,5.8,5.8,44,0.00,BKN,,0.00,0.0,WeatherDisplay:10.37,2013-03-22 23:27:00,
2013-03-22 19:32:00,37.5,17.5,29.75,WNW,298,3.5,3.5,44,0.00,BKN,,0.00,0.0,WeatherDisplay:10.37,2013-03-22 23:32:00,
2013-03-22 19:37:00,37.3,17.9,29.75,NW,312,2.3,2.3,45,0.00,BKN,,0.00,0.0,WeatherDisplay:10.37,2013-03-22 23:37:00,
2013-03-22 19:42:00,37.2,17.8,29.75,WNW,291,0.0,0.0,45,0.00,BKN,,0.00,0.0,WeatherDisplay:10.37,2013-03-22 23:42:00,
2013-03-22 19:47:00,37.0,17.6,29.75,NW,313,1.1,1.1,45,0.00,BKN,,0.00,0.0,WeatherDisplay:10.37,2013-03-22 23:47:00,
2013-03-22 19:52:00,36.8,17.4,29.75,NNW,336,2.3,2.3,45,0.00,BKN,,0.00,0.0,WeatherDisplay:10.37,2013-03-22 23:52:00,
2013-03-22 19:57:00,36.6,17.7,29.75,NW,311,5.8,5.8,46,0.00,BKN,,0.00,0.0,WeatherDisplay:10.37,2013-03-22 23:57:00,
2013-03-22 20:02:00,36.5,17.7,29.75,West,271,1.1,1.1,46,0.00,BKN,,0.00,0.0,WeatherDisplay:10.37,2013-03-23 00:02:00,
2013-03-22 20:07:00,36.3,17.5,29.75,NW,311,9.2,9.2,46,0.00,BKN,,0.00,0.0,WeatherDisplay:10.37,2013-03-23 00:07:00,
2013-03-22 20:13:00,36.2,17.9,29.75,West,267,4.6,4.6,47,0.00,BKN,,0.00,0.0,WeatherDisplay:10.37,2013-03-23 00:13:00,
2013-03-22 20:18:00,36.0,17.7,29.75,SW,230,1.1,1.1,47,0.00,BKN,,0.00,0.0,WeatherDisplay:10.37,2013-03-23 00:18:00,
2013-03-22 20:23:00,36.0,17.7,29.75,SSE,155,4.6,4.6,47,0.00,BKN,,0.00,0.0,WeatherDisplay:10.37,2013-03-23 00:23:00,
2013-03-22 20:28:00,35.9,18.1,29.75,West,280,8.1,8.1,48,0.00,BKN,,0.00,0.0,WeatherDisplay:10.37,2013-03-23 00:28:00,
2013-03-22 20:33:00,35.9,18.1,29.76,NNW,343,5.8,5.8,48,0.00,BKN,,0.00,0.0,WeatherDisplay:10.37,2013-03-23 00:33:00,
2013-03-22 20:38:00,35.8,18.5,29.76,WNW,288,6.9,6.9,49,0.00,BKN,,0.00,0.0,WeatherDisplay:10.37,2013-03-23 00:38:00,
2013-03-22 20:43:00,35.6,18.3,29.76,WSW,256,6.9,6.9,49,0.00,BKN,,0.00,0.0,WeatherDisplay:10.37,2013-03-23 00:43:00,
2013-03-22 20:48:00,35.5,18.2,29.76,WNW,299,1.1,1.1,49,0.00,BKN,,0.00,0.0,WeatherDisplay:10.37,2013-03-23 00:48:00,
2013-03-22 20:53:00,35.5,18.2,29.76,NW,323,0.0,0.0,49,0.00,BKN,,0.00,0.0,WeatherDisplay:10.37,2013-03-23 00:53:00,
2013-03-22 20:58:00,35.3,18.5,29.76,WNW,295,0.0,0.0,50,0.00,BKN,,0.00,0.0,WeatherDisplay:10.37,2013-03-23 00:58:00,
2013-03-22 21:03:00,35.3,18.5,29.76,NW,312,5.8,5.8,50,0.00,BKN,,0.00,0.0,WeatherDisplay:10.37,2013-03-23 01:03:00,
2013-03-22 21:08:00,35.2,18.4,29.76,WNW,299,4.6,4.6,50,0.00,BKN,,0.00,0.0,WeatherDisplay:10.37,2013-03-23 01:08:00,
2013-03-22 21:13:00,35.2,18.4,29.76,NW,312,1.1,1.1,50,0.00,BKN,,0.00,0.0,WeatherDisplay:10.37,2013-03-23 01:13:00,
2013-03-22 21:18:00,35.0,18.2,29.77,NNW,343,3.5,3.5,50,0.00,FEW,,0.00,0.0,WeatherDisplay:10.37,2013-03-23 01:18:00,
2013-03-22 21:23:00,34.9,18.1,29.77,North,359,12.7,12.7,50,0.00,FEW,,0.00,0.0,WeatherDisplay:10.37,2013-03-23 01:23:00,
2013-03-22 21:28:00,34.9,18.1,29.77,NW,319,2.3,2.3,50,0.00,FEW,,0.00,0.0,WeatherDisplay:10.37,2013-03-23 01:28:00,
2013-03-22 21:33:00,34.9,18.1,29.77,WNW,296,3.5,3.5,50,0.00,FEW,,0.00,0.0,WeatherDisplay:10.37,2013-03-23 01:33:00,
2013-03-22 21:38:00,34.7,17.9,29.77,NW,311,3.5,3.5,50,0.00,FEW,,0.00,0.0,WeatherDisplay:10.37,2013-03-23 01:38:00,
2013-03-22 21:43:00,34.7,18.4,29.77,WNW,287,2.3,2.3,51,0.00,FEW,,0.00,0.0,WeatherDisplay:10.37,2013-03-23 01:43:00,
2013-03-22 21:48:00,34.6,17.8,29.77,NW,312,1.1,1.1,50,0.00,FEW,,0.00,0.0,WeatherDisplay:10.37,2013-03-23 01:48:00,
2013-03-22 21:53:00,34.6,18.3,29.77,NW,318,1.1,1.1,51,0.00,FEW,,0.00,0.0,WeatherDisplay:10.37,2013-03-23 01:53:00,
2013-03-22 21:58:00,34.4,18.1,29.77,NW,315,4.6,4.6,51,0.00,FEW,,0.00,0.0,WeatherDisplay:10.37,2013-03-23 01:58:00,
2013-03-22 22:03:00,34.4,18.1,29.77,SW,223,4.6,4.6,51,0.00,CLR,,0.00,0.0,WeatherDisplay:10.37,2013-03-23 02:03:00,
2013-03-22 22:08:00,34.4,18.1,29.77,West,272,5.8,5.8,51,0.00,CLR,,0.00,0.0,WeatherDisplay:10.37,2013-03-23 02:08:00,
2013-03-22 22:14:00,34.3,18.0,29.77,WNW,296,2.3,2.3,51,0.00,CLR,,0.00,0.0,WeatherDisplay:10.37,2013-03-23 02:14:00,
2013-03-22 22:19:00,34.3,18.0,29.77,North,353,4.6,4.6,51,0.00,CLR,,0.00,0.0,WeatherDisplay:10.37,2013-03-23 02:19:00,
2013-03-22 22:24:00,34.3,18.0,29.77,NW,309,2.3,2.3,51,0.00,CLR,,0.00,0.0,WeatherDisplay:10.37,2013-03-23 02:24:00,
2013-03-22 22:29:00,34.1,18.3,29.77,North,349,4.0,4.0,52,0.00,CLR,,0.00,0.0,WeatherDisplay:10.37,2013-03-23 02:29:00,
2013-03-22 22:34:00,34.1,18.3,29.77,West,271,3.5,3.5,52,0.00,CLR,,0.00,0.0,WeatherDisplay:10.37,2013-03-23 02:34:00,
2013-03-22 22:39:00,34.0,18.2,29.77,WNW,296,3.5,3.5,52,0.00,CLR,,0.00,0.0,WeatherDisplay:10.37,2013-03-23 02:39:00,
2013-03-22 22:44:00,33.8,18.5,29.77,WNW,282,3.0,3.0,53,0.00,CLR,,0.00,0.0,WeatherDisplay:10.37,2013-03-23 02:44:00,
2013-03-22 22:49:00,33.7,18.4,29.77,West,268,6.9,6.9,53,0.00,CLR,,0.00,0.0,WeatherDisplay:10.37,2013-03-23 02:49:00,
2013-03-22 22:55:00,33.7,18.4,29.77,NW,309,4.6,4.6,53,0.00,CLR,,0.00,0.0,WeatherDisplay:10.37,2013-03-23 02:55:00,
2013-03-22 23:02:00,33.5,18.2,29.77,West,270,3.5,3.5,53,0.00,CLR,,0.00,0.0,WeatherDisplay:10.37,2013-03-23 03:02:00,
2013-03-22 23:07:00,33.5,18.2,29.77,NNE,16,1.1,1.1,53,0.00,CLR,,0.00,0.0,WeatherDisplay:10.37,2013-03-23 03:07:00,
2013-03-22 23:12:00,33.5,18.6,29.77,WSW,240,2.3,2.3,54,0.00,CLR,,0.00,0.0,WeatherDisplay:10.37,2013-03-23 03:12:00,
2013-03-22 23:17:00,33.4,18.1,29.77,NNW,342,5.8,5.8,53,0.00,CLR,,0.00,0.0,WeatherDisplay:10.37,2013-03-23 03:17:00,
2013-03-22 23:23:00,33.4,18.1,29.77,West,275,3.5,3.5,53,0.00,CLR,,0.00,0.0,WeatherDisplay:10.37,2013-03-23 03:23:00,
2013-03-22 23:28:00,33.4,18.5,29.77,North,357,3.5,3.5,54,0.00,CLR,,0.00,0.0,WeatherDisplay:10.37,2013-03-23 03:28:00,
2013-03-22 23:33:00,33.2,18.3,29.77,West,264,2.3,2.3,54,0.00,CLR,,0.00,0.0,WeatherDisplay:10.37,2013-03-23 03:33:00,
2013-03-22 23:38:00,33.2,18.3,29.77,WNW,295,3.0,3.0,54,0.00,CLR,,0.00,0.0,WeatherDisplay:10.37,2013-03-23 03:38:00,
2013-03-22 23:43:00,33.2,18.3,29.77,West,281,10.4,10.4,54,0.00,CLR,,0.00,0.0,WeatherDisplay:10.37,2013-03-23 03:43:00,
2013-03-22 23:48:00,33.2,18.3,29.78,NW,313,6.9,6.9,54,0.00,CLR,,0.00,0.0,WeatherDisplay:10.37,2013-03-23 03:48:00,
2013-03-22 23:53:00,33.1,18.2,29.78,WSW,253,4.6,4.6,54,0.00,CLR,,0.00,0.0,WeatherDisplay:10.37,2013-03-23 03:53:00,
2013-03-22 23:58:00,33.1,18.2,29.78,NW,304,1.1,1.1,54,0.00,CLR,,0.00,0.0,WeatherDisplay:10.37,2013-03-23 03:58:00,